Location: Colonia Mina de C?rbuni
(46.1667°N, 22.7167°E)
Time: 21:53:38
(UTC+00:00)

Vanguard 3 - Visible Passes

Search period start: 12 April 2024 00:00
Search period end: 22 April 2024 00:00
Orbit: 510 x 3236 km, 33.3° (Epoch: 11 April)

Date Brightness Start Highest point End Pass type
(mag) Time Alt. Az. Time Alt. Az. Time Alt. Az.
14 Apr 10.5 02:26:22 10° SSE 02:28:22 11° SSE 02:30:11 10° SE visible
16 Apr 10.4 01:59:07 10° S 02:04:57 15° SSE 02:09:35 10° SE visible
17 Apr 10.8 00:45:38 10° SSE 00:46:56 10° SSE 00:48:12 10° SE visible
17 Apr 9.9 02:50:50 10° SSW 02:59:18 22° SSE 03:05:10 10° ESE visible
18 Apr 10.3 01:34:01 12° SSW 01:41:24 19° SSE 01:47:40 10° ESE visible
19 Apr 10.7 00:20:38 13° SSE 00:23:11 14° SSE 00:28:32 10° SE visible
19 Apr 9.8 02:25:24 10° SW 02:35:48 27° SSE 02:42:42 10° ESE visible
20 Apr 10.2 01:11:24 17° S 01:17:40 23° SSE 01:25:19 10° ESE visible
20 Apr 10.6 23:57:51 17° SSE 23:59:15 17° SSE 00:06:37 10° ESE visible
21 Apr 9.8 02:02:04 14° SW 02:12:08 31° SSE 02:20:04 10° ESE visible
